Time,TemperatureF,DewpointF,PressureIn,WindDirection,WindDirectionDegrees,WindSpeedMPH,WindSpeedGustMPH,Humidity,HourlyPrecipIn,Conditions,Clouds,dailyrainin,SoftwareType,DateUTC
2013-07-08 00:01:00,78.4,66.9,29.89,SSE,158,1.5,6.9,68,0.00,,,0.00,WUHU216HW,2013-07-08 05:01:00,
2013-07-08 00:06:00,78.4,66.9,29.90,SSE,158,4.2,8.0,68,0.00,,,0.00,WUHU216HW,2013-07-08 05:06:00,
2013-07-08 00:11:00,78.4,66.9,29.90,SSW,203,4.0,8.0,68,0.00,,,0.00,WUHU216HW,2013-07-08 05:11:00,
2013-07-08 00:16:00,78.4,66.9,29.89,SSE,158,5.1,5.1,68,0.00,,,0.00,WUHU216HW,2013-07-08 05:16:00,
2013-07-08 00:21:00,78.4,66.9,29.90,SSW,203,5.8,5.8,68,0.00,,,0.00,WUHU216HW,2013-07-08 05:21:00,
2013-07-08 00:26:00,78.4,66.9,29.89,South,180,2.0,5.8,68,0.00,,,0.00,WUHU216HW,2013-07-08 05:26:00,
2013-07-08 00:31:00,78.4,66.9,29.89,SSE,158,2.4,5.3,68,0.00,,,0.00,WUHU216HW,2013-07-08 05:31:00,
2013-07-08 00:36:00,78.4,66.9,29.89,South,180,3.8,5.3,68,0.00,,,0.00,WUHU216HW,2013-07-08 05:36:00,
2013-07-08 00:41:00,78.0,66.6,29.89,South,180,4.6,5.3,68,0.00,,,0.00,WUHU216HW,2013-07-08 05:41:00,
2013-07-08 00:46:00,78.0,67.0,29.89,South,180,2.4,5.3,69,0.00,,,0.00,WUHU216HW,2013-07-08 05:46:00,
2013-07-08 00:51:00,77.9,66.7,29.89,South,180,4.4,5.5,69,0.00,,,0.00,WUHU216HW,2013-07-08 05:51:00,
2013-07-08 00:56:00,77.7,66.7,29.89,South,180,3.8,5.5,69,0.00,,,0.00,WUHU216HW,2013-07-08 05:56:00,
2013-07-08 01:01:00,77.7,67.2,29.88,SSE,158,5.1,5.1,70,0.00,,,0.00,WUHU216HW,2013-07-08 06:01:00,
2013-07-08 01:06:00,76.4,67.0,29.89,SSE,158,1.3,5.1,70,0.00,,,0.00,WUHU216HW,2013-07-08 06:06:00,
2013-07-08 01:11:00,74.4,66.4,29.89,South,180,2.9,6.9,76,0.00,,,0.00,WUHU216HW,2013-07-08 06:11:00,
2013-07-08 01:16:00,73.9,67.0,29.89,South,180,2.6,6.9,79,0.00,,,0.00,WUHU216HW,2013-07-08 06:16:00,
2013-07-08 01:21:00,73.9,67.0,29.89,SW,225,2.9,2.9,79,0.00,,,0.00,WUHU216HW,2013-07-08 06:21:00,
2013-07-08 01:26:00,73.2,67.0,29.88,South,180,4.2,4.2,81,0.02,,,0.03,WUHU216HW,2013-07-08 06:26:00,
2013-07-08 01:31:00,73.5,67.4,29.88,South,180,5.1,5.1,81,0.02,,,0.03,WUHU216HW,2013-07-08 06:31:00,
2013-07-08 01:36:00,73.9,67.8,29.88,South,180,2.4,5.1,81,0.02,,,0.03,WUHU216HW,2013-07-08 06:36:00,
2013-07-08 01:41:00,74.4,68.0,29.89,South,180,0.6,4.0,80,0.02,,,0.03,WUHU216HW,2013-07-08 06:41:00,
2013-07-08 01:46:00,74.6,67.7,29.88,SSW,203,1.5,4.0,79,0.02,,,0.03,WUHU216HW,2013-07-08 06:46:00,
2013-07-08 01:51:00,74.4,67.6,29.88,SE,135,2.0,2.4,79,0.02,,,0.03,WUHU216HW,2013-07-08 06:51:00,
2013-07-08 01:56:00,74.3,67.8,29.88,SSW,203,2.9,4.6,80,0.02,,,0.03,WUHU216HW,2013-07-08 06:56:00,
2013-07-08 02:01:00,74.1,67.6,29.87,South,180,3.3,4.9,80,0.02,,,0.03,WUHU216HW,2013-07-08 07:01:00,
2013-07-08 02:06:00,74.4,68.0,29.88,South,180,4.0,5.8,80,0.02,,,0.03,WUHU216HW,2013-07-08 07:06:00,
2013-07-08 02:11:00,75.0,68.1,29.87,SSE,158,5.3,5.8,79,0.02,,,0.03,WUHU216HW,2013-07-08 07:11:00,
2013-07-08 02:17:00,75.2,68.3,29.87,South,180,3.1,5.3,79,0.02,,,0.03,WUHU216HW,2013-07-08 07:17:00,
2013-07-08 02:22:00,75.3,68.0,29.87,South,180,4.2,6.4,78,0.00,,,0.03,WUHU216HW,2013-07-08 07:22:00,
2013-07-08 02:27:00,75.7,68.4,29.87,SSE,158,2.4,6.4,78,0.00,,,0.03,WUHU216HW,2013-07-08 07:27:00,
2013-07-08 02:32:00,75.9,68.1,29.87,South,180,1.3,6.9,77,0.00,,,0.03,WUHU216HW,2013-07-08 07:32:00,
2013-07-08 02:37:00,75.9,68.1,29.87,SSW,203,3.3,6.9,77,0.00,,,0.03,WUHU216HW,2013-07-08 07:37:00,
2013-07-08 02:42:00,75.9,67.8,29.88,SW,225,11.6,11.6,76,0.00,,,0.03,WUHU216HW,2013-07-08 07:42:00,
2013-07-08 02:47:00,76.2,68.1,29.87,SSW,203,6.2,11.6,76,0.00,,,0.03,WUHU216HW,2013-07-08 07:47:00,
2013-07-08 02:52:00,76.4,67.9,29.87,South,180,5.8,6.2,75,0.00,,,0.03,WUHU216HW,2013-07-08 07:52:00,
2013-07-08 02:57:00,76.6,67.7,29.87,SSE,158,5.3,6.2,74,0.00,,,0.03,WUHU216HW,2013-07-08 07:57:00,
2013-07-08 03:02:00,76.6,67.7,29.87,South,180,4.2,8.0,74,0.00,,,0.03,WUHU216HW,2013-07-08 08:02:00,
2013-07-08 03:07:00,76.6,67.7,29.86,SSW,203,10.2,10.2,74,0.00,,,0.03,WUHU216HW,2013-07-08 08:07:00,
2013-07-08 03:12:00,76.6,67.7,29.87,SSW,203,4.9,10.2,74,0.00,,,0.03,WUHU216HW,2013-07-08 08:12:00,
2013-07-08 03:17:00,76.4,67.5,29.87,South,180,4.0,10.2,74,0.00,,,0.03,WUHU216HW,2013-07-08 08:17:00,
2013-07-08 03:22:00,76.2,67.3,29.86,South,180,6.7,7.3,74,0.00,,,0.03,WUHU216HW,2013-07-08 08:22:00,
2013-07-08 03:27:00,76.2,67.3,29.86,South,180,2.9,7.3,74,0.00,,,0.03,WUHU216HW,2013-07-08 08:27:00,
2013-07-08 03:32:00,76.4,67.5,29.86,South,180,8.5,8.5,74,0.00,,,0.03,WUHU216HW,2013-07-08 08:32:00,
2013-07-08 03:37:00,76.2,67.3,29.86,South,180,6.2,8.5,74,0.00,,,0.03,WUHU216HW,2013-07-08 08:37:00,
2013-07-08 03:42:00,76.1,67.5,29.86,SSW,203,2.4,8.5,75,0.00,,,0.03,WUHU216HW,2013-07-08 08:42:00,
2013-07-08 03:46:00,75.9,67.4,29.87,South,180,2.2,6.2,75,0.00,,,0.03,WUHU216HW,2013-07-08 08:46:00,
2013-07-08 03:52:00,75.9,67.8,29.87,SSW,203,5.5,5.5,76,0.00,,,0.03,WUHU216HW,2013-07-08 08:52:00,
2013-07-08 03:57:00,75.7,67.6,29.87,South,180,4.4,5.5,76,0.00,,,0.03,WUHU216HW,2013-07-08 08:57:00,
2013-07-08 04:02:00,75.5,67.4,29.87,South,180,5.1,6.0,76,0.00,,,0.03,WUHU216HW,2013-07-08 09:02:00,
2013-07-08 04:07:00,75.5,67.4,29.87,South,180,4.9,6.7,76,0.00,,,0.03,WUHU216HW,2013-07-08 09:07:00,
2013-07-08 04:12:00,75.3,67.2,29.88,South,180,2.4,6.7,76,0.00,,,0.03,WUHU216HW,2013-07-08 09:12:00,
2013-07-08 04:17:00,75.3,67.6,29.88,South,180,4.4,5.1,77,0.00,,,0.03,WUHU216HW,2013-07-08 09:17:00,
2013-07-08 04:22:00,75.0,67.3,29.88,South,180,4.0,5.1,77,0.00,,,0.03,WUHU216HW,2013-07-08 09:22:00,
2013-07-08 04:27:00,75.0,67.3,29.88,SSW,203,3.8,6.4,77,0.00,,,0.03,WUHU216HW,2013-07-08 09:27:00,
2013-07-08 04:32:00,75.0,67.7,29.88,South,180,6.9,6.9,78,0.00,,,0.03,WUHU216HW,2013-07-08 09:32:00,
2013-07-08 04:37:00,75.0,67.7,29.88,SSW,203,4.0,6.9,78,0.00,,,0.03,WUHU216HW,2013-07-08 09:37:00,
2013-07-08 04:42:00,74.8,67.5,29.88,South,180,4.9,6.9,78,0.00,,,0.03,WUHU216HW,2013-07-08 09:42:00,
2013-07-08 04:47:00,74.8,67.5,29.88,South,180,3.5,4.9,78,0.00,,,0.03,WUHU216HW,2013-07-08 09:47:00,
2013-07-08 04:52:00,74.8,67.5,29.88,South,180,2.9,4.0,78,0.00,,,0.03,WUHU216HW,2013-07-08 09:52:00,
2013-07-08 04:57:00,74.8,67.9,29.88,South,180,4.6,4.6,79,0.00,,,0.03,WUHU216HW,2013-07-08 09:57:00,
2013-07-08 05:02:00,74.8,67.5,29.89,SSE,158,0.8,6.9,78,0.00,,,0.03,WUHU216HW,2013-07-08 10:02:00,
2013-07-08 05:07:00,74.8,67.5,29.90,NNW,338,0.0,6.9,78,0.00,,,0.03,WUHU216HW,2013-07-08 10:07:00,
2013-07-08 05:12:00,74.4,67.6,29.89,ENE,68,2.4,2.4,79,0.00,,,0.03,WUHU216HW,2013-07-08 10:12:00,
2013-07-08 05:17:00,74.3,67.8,29.88,South,180,3.8,3.8,80,0.00,,,0.03,WUHU216HW,2013-07-08 10:17:00,
2013-07-08 05:22:00,73.5,67.4,29.88,SE,135,0.0,3.8,81,0.00,,,0.03,WUHU216HW,2013-07-08 10:22:00,
2013-07-08 05:27:00,72.5,67.0,29.88,South,180,4.6,4.6,83,0.02,,,0.04,WUHU216HW,2013-07-08 10:27:00,
2013-07-08 05:32:00,71.6,66.8,29.88,SSE,158,2.9,4.6,85,0.02,,,0.04,WUHU216HW,2013-07-08 10:32:00,
2013-07-08 05:37:00,71.2,67.1,29.88,South,180,5.1,5.1,87,0.02,,,0.04,WUHU216HW,2013-07-08 10:37:00,
2013-07-08 05:42:00,71.2,67.1,29.89,South,180,2.4,5.1,87,0.02,,,0.04,WUHU216HW,2013-07-08 10:42:00,
2013-07-08 05:47:00,71.4,67.3,29.88,South,180,5.8,5.8,87,0.02,,,0.04,WUHU216HW,2013-07-08 10:47:00,
2013-07-08 05:52:00,71.4,67.3,29.89,SSE,158,2.4,5.8,87,0.02,,,0.04,WUHU216HW,2013-07-08 10:52:00,
2013-07-08 05:57:00,71.7,67.6,29.89,South,180,5.1,5.8,87,0.02,,,0.04,WUHU216HW,2013-07-08 10:57:00,
2013-07-08 06:02:00,72.1,67.7,29.89,South,180,2.4,5.1,86,0.02,,,0.04,WUHU216HW,2013-07-08 11:02:00,
2013-07-08 06:07:00,72.1,67.7,29.89,SSW,203,2.4,3.8,86,0.02,,,0.04,WUHU216HW,2013-07-08 11:07:00,
2013-07-08 06:12:00,72.1,67.7,29.89,SSE,158,2.2,2.4,86,0.02,,,0.04,WUHU216HW,2013-07-08 11:12:00,
2013-07-08 06:17:00,72.3,67.8,29.89,South,180,2.6,2.6,86,0.02,,,0.04,WUHU216HW,2013-07-08 11:17:00,
2013-07-08 06:22:00,72.3,67.8,29.89,SSW,203,2.2,2.6,86,0.00,,,0.04,WUHU216HW,2013-07-08 11:22:00,
2013-07-08 06:27:00,72.5,68.0,29.89,South,180,2.4,2.9,86,0.00,,,0.04,WUHU216HW,2013-07-08 11:27:00,
2013-07-08 06:32:00,72.8,68.0,29.89,South,180,4.0,5.5,85,0.00,,,0.04,WUHU216HW,2013-07-08 11:32:00,
2013-07-08 06:37:00,73.0,68.2,29.89,SSE,158,2.2,5.5,85,0.00,,,0.04,WUHU216HW,2013-07-08 11:37:00,
2013-07-08 06:42:00,73.2,68.1,29.89,South,180,3.8,4.0,84,0.00,,,0.04,WUHU216HW,2013-07-08 11:42:00,
2013-07-08 06:47:00,73.4,68.2,29.89,South,180,4.4,4.4,84,0.00,,,0.04,WUHU216HW,2013-07-08 11:47:00,
2013-07-08 06:52:00,73.5,68.1,29.89,SSW,203,3.5,4.6,83,0.00,,,0.04,WUHU216HW,2013-07-08 11:52:00,
2013-07-08 06:57:00,73.7,68.3,29.89,South,180,2.4,4.6,83,0.00,,,0.04,WUHU216HW,2013-07-08 11:57:00,
2013-07-08 07:02:00,73.9,68.4,29.90,SSW,203,1.7,3.5,83,0.00,,,0.04,WUHU216HW,2013-07-08 12:02:00,
2013-07-08 07:07:00,73.9,68.4,29.89,SSW,203,2.2,3.5,83,0.00,,,0.04,WUHU216HW,2013-07-08 12:07:00,
2013-07-08 07:12:00,74.1,68.3,29.90,South,180,3.1,4.6,82,0.00,,,0.04,WUHU216HW,2013-07-08 12:12:00,
2013-07-08 07:17:00,74.4,68.3,29.90,SSE,158,3.5,4.6,81,0.00,,,0.04,WUHU216HW,2013-07-08 12:17:00,
2013-07-08 07:22:00,74.8,68.7,29.90,SSW,203,3.1,3.8,81,0.00,,,0.04,WUHU216HW,2013-07-08 12:22:00,
2013-07-08 07:27:00,74.8,68.7,29.90,SW,225,0.8,3.5,81,0.00,,,0.04,WUHU216HW,2013-07-08 12:27:00,
2013-07-08 07:32:00,74.8,68.3,29.90,SSW,203,1.5,6.7,80,0.00,,,0.04,WUHU216HW,2013-07-08 12:32:00,
2013-07-08 07:37:00,75.0,68.1,29.90,South,180,3.3,6.7,79,0.00,,,0.04,WUHU216HW,2013-07-08 12:37:00,
2013-07-08 07:42:00,75.0,68.1,29.89,SSW,203,6.0,6.0,79,0.00,,,0.04,WUHU216HW,2013-07-08 12:42:00,
2013-07-08 07:47:00,75.7,68.4,29.90,SSW,203,5.8,6.0,78,0.00,,,0.04,WUHU216HW,2013-07-08 12:47:00,
2013-07-08 07:52:00,76.8,69.0,29.89,SSW,203,4.6,6.0,77,0.00,,,0.04,WUHU216HW,2013-07-08 12:52:00,
2013-07-08 07:57:00,77.5,69.3,29.90,SSW,203,8.9,8.9,76,0.00,,,0.04,WUHU216HW,2013-07-08 12:57:00,
2013-07-08 08:02:00,78.6,69.1,29.90,WSW,248,4.6,8.9,73,0.00,,,0.04,WUHU216HW,2013-07-08 13:02:00,
2013-07-08 08:07:00,79.5,69.6,29.90,SSW,203,4.4,7.6,72,0.00,,,0.04,WUHU216HW,2013-07-08 13:07:00,
2013-07-08 08:12:00,79.8,69.6,29.90,South,180,4.4,7.6,71,0.00,,,0.04,WUHU216HW,2013-07-08 13:12:00,
2013-07-08 08:17:00,79.5,69.6,29.91,South,180,3.8,5.1,72,0.00,,,0.04,WUHU216HW,2013-07-08 13:17:00,
2013-07-08 08:22:00,79.5,69.2,29.91,South,180,5.1,5.1,71,0.00,,,0.04,WUHU216HW,2013-07-08 13:22:00,
2013-07-08 08:27:00,80.4,69.8,29.91,SW,225,8.9,8.9,70,0.00,,,0.04,WUHU216HW,2013-07-08 13:27:00,
2013-07-08 08:32:00,82.2,70.3,29.90,SSW,203,6.7,8.9,67,0.00,,,0.04,WUHU216HW,2013-07-08 13:32:00,
2013-07-08 08:37:00,83.1,70.0,29.90,SSW,203,6.0,8.0,65,0.00,,,0.04,WUHU216HW,2013-07-08 13:37:00,
2013-07-08 08:42:00,84.0,70.9,29.91,SW,225,5.5,6.7,65,0.00,,,0.04,WUHU216HW,2013-07-08 13:42:00,
2013-07-08 08:47:00,85.2,70.7,29.91,SSE,158,2.9,8.2,62,0.00,,,0.04,WUHU216HW,2013-07-08 13:47:00,
2013-07-08 08:52:00,85.2,70.7,29.91,SW,225,7.6,8.2,62,0.00,,,0.04,WUHU216HW,2013-07-08 13:52:00,
2013-07-08 08:57:00,85.1,70.6,29.91,SSW,203,8.5,8.5,62,0.00,,,0.04,WUHU216HW,2013-07-08 13:57:00,
2013-07-08 09:02:00,84.3,69.9,29.91,SSW,203,8.7,8.9,62,0.00,,,0.04,WUHU216HW,2013-07-08 14:02:00,
2013-07-08 09:07:00,84.5,70.5,29.91,SSW,203,5.1,8.9,63,0.00,,,0.04,WUHU216HW,2013-07-08 14:07:00,
2013-07-08 09:12:00,85.2,71.7,29.91,SSW,203,4.0,5.5,64,0.00,,,0.04,WUHU216HW,2013-07-08 14:12:00,
2013-07-08 09:17:00,86.3,72.2,29.91,South,180,7.1,8.7,63,0.00,,,0.04,WUHU216HW,2013-07-08 14:17:00,
2013-07-08 09:22:00,85.8,70.8,29.91,SSW,203,6.2,8.7,61,0.00,,,0.04,WUHU216HW,2013-07-08 14:22:00,
2013-07-08 09:27:00,84.2,70.2,29.92,SSW,203,6.0,8.2,63,0.00,,,0.04,WUHU216HW,2013-07-08 14:27:00,
2013-07-08 09:32:00,83.4,69.9,29.91,SW,225,12.3,12.3,64,0.00,,,0.04,WUHU216HW,2013-07-08 14:32:00,
2013-07-08 09:37:00,82.9,69.8,29.92,SSW,203,4.9,13.4,65,0.00,,,0.04,WUHU216HW,2013-07-08 14:37:00,
2013-07-08 09:42:00,82.2,69.6,29.92,South,180,8.0,13.4,66,0.00,,,0.04,WUHU216HW,2013-07-08 14:42:00,
2013-07-08 09:47:00,81.6,70.0,29.92,South,180,5.8,8.0,68,0.00,,,0.04,WUHU216HW,2013-07-08 14:47:00,
2013-07-08 09:52:00,81.5,70.3,29.92,SSW,203,9.6,9.6,69,0.00,,,0.04,WUHU216HW,2013-07-08 14:52:00,
2013-07-08 09:57:00,81.6,70.5,29.92,South,180,8.2,9.6,69,0.00,,,0.04,WUHU216HW,2013-07-08 14:57:00,
2013-07-08 10:02:00,82.0,70.3,29.92,SSW,203,6.9,8.2,68,0.00,,,0.04,WUHU216HW,2013-07-08 15:02:00,
2013-07-08 10:07:00,82.0,70.8,29.92,SSW,203,9.6,9.6,69,0.00,,,0.04,WUHU216HW,2013-07-08 15:07:00,
2013-07-08 10:12:00,83.1,70.5,29.92,SSE,158,10.2,10.5,66,0.00,,,0.04,WUHU216HW,2013-07-08 15:12:00,
2013-07-08 10:17:00,82.9,70.7,29.92,SSE,158,7.1,10.5,67,0.00,,,0.04,WUHU216HW,2013-07-08 15:17:00,
2013-07-08 10:22:00,82.9,71.2,29.92,SW,225,5.1,10.2,68,0.00,,,0.04,WUHU216HW,2013-07-08 15:22:00,
2013-07-08 10:27:00,82.7,70.6,29.92,SSW,203,11.1,11.1,67,0.00,,,0.04,WUHU216HW,2013-07-08 15:27:00,
2013-07-08 10:32:00,82.5,70.8,29.92,South,180,4.4,11.1,68,0.00,,,0.04,WUHU216HW,2013-07-08 15:32:00,
2013-07-08 10:37:00,83.1,71.8,29.93,South,180,4.2,11.1,69,0.00,,,0.04,WUHU216HW,2013-07-08 15:37:00,
2013-07-08 10:42:00,83.8,71.6,29.93,South,180,8.0,8.0,67,0.00,,,0.04,WUHU216HW,2013-07-08 15:42:00,
2013-07-08 10:47:00,81.3,70.1,29.93,SSW,203,2.9,8.0,69,0.00,,,0.04,WUHU216HW,2013-07-08 15:47:00,
2013-07-08 10:52:00,78.6,69.9,29.93,SW,225,3.3,8.0,75,0.00,,,0.04,WUHU216HW,2013-07-08 15:52:00,
2013-07-08 10:57:00,78.4,70.9,29.93,SSW,203,3.5,5.3,78,0.00,,,0.04,WUHU216HW,2013-07-08 15:57:00,
2013-07-08 11:02:00,78.9,71.9,29.93,SSW,203,4.0,4.9,79,0.00,,,0.04,WUHU216HW,2013-07-08 16:02:00,
2013-07-08 11:07:00,80.0,72.2,29.93,SSW,203,6.7,6.7,77,0.00,,,0.04,WUHU216HW,2013-07-08 16:07:00,
2013-07-08 11:12:00,81.1,72.0,29.93,SSW,203,11.4,11.4,74,0.00,,,0.04,WUHU216HW,2013-07-08 16:12:00,
2013-07-08 11:17:00,82.0,72.9,29.93,South,180,4.4,11.4,74,0.02,,,0.06,WUHU216HW,2013-07-08 16:17:00,
2013-07-08 11:22:00,82.9,72.3,29.93,South,180,7.8,11.4,70,0.02,,,0.06,WUHU216HW,2013-07-08 16:22:00,
2013-07-08 11:28:00,82.7,71.9,29.93,South,180,5.1,7.8,70,0.02,,,0.06,WUHU216HW,2013-07-08 16:28:00,
2013-07-08 11:33:00,82.9,71.6,29.93,WSW,248,4.9,7.8,69,0.02,,,0.06,WUHU216HW,2013-07-08 16:33:00,
2013-07-08 11:38:00,83.1,73.2,29.93,SSW,203,2.0,6.0,70,0.02,,,0.06,WUHU216HW,2013-07-08 16:38:00,
2013-07-08 11:43:00,86.5,74.2,29.93,South,180,3.1,6.0,67,0.02,,,0.06,WUHU216HW,2013-07-08 16:43:00,
2013-07-08 11:48:00,87.8,73.6,29.93,SSE,158,4.0,8.0,63,0.02,,,0.06,WUHU216HW,2013-07-08 16:48:00,
2013-07-08 11:53:00,88.1,73.5,29.93,SE,135,8.9,8.9,62,0.02,,,0.06,WUHU216HW,2013-07-08 16:53:00,
2013-07-08 11:58:00,87.0,72.9,29.93,SSE,158,7.1,8.9,63,0.02,,,0.06,WUHU216HW,2013-07-08 16:58:00,
2013-07-08 12:04:00,87.0,72.5,29.93,South,180,5.5,8.7,62,0.02,,,0.06,WUHU216HW,2013-07-08 17:04:00,
2013-07-08 12:09:00,87.0,73.4,29.93,SSW,203,4.2,9.8,64,0.02,,,0.06,WUHU216HW,2013-07-08 17:09:00,
2013-07-08 12:14:00,89.7,75.0,29.93,SSW,203,4.9,9.8,62,0.00,,,0.06,WUHU216HW,2013-07-08 17:14:00,
2013-07-08 12:20:00,90.3,74.0,29.93,SSW,203,6.2,12.9,59,0.00,,,0.06,WUHU216HW,2013-07-08 17:20:00,
2013-07-08 12:25:00,90.1,74.4,29.93,WSW,248,8.9,13.4,60,0.00,,,0.06,WUHU216HW,2013-07-08 17:25:00,
2013-07-08 12:30:00,91.0,74.6,29.93,SE,135,7.3,13.4,59,0.00,,,0.06,WUHU216HW,2013-07-08 17:30:00,
2013-07-08 12:35:00,91.2,74.3,29.93,South,180,5.8,10.5,58,0.00,,,0.06,WUHU216HW,2013-07-08 17:35:00,
2013-07-08 12:41:00,90.8,73.9,29.92,SSW,203,5.5,10.5,58,0.00,,,0.06,WUHU216HW,2013-07-08 17:41:00,
2013-07-08 12:46:00,90.5,73.6,29.92,SSW,203,6.4,10.7,58,0.00,,,0.06,WUHU216HW,2013-07-08 17:46:00,
2013-07-08 12:51:00,91.0,74.6,29.92,SW,225,8.7,10.7,59,0.00,,,0.06,WUHU216HW,2013-07-08 17:51:00,
2013-07-08 12:56:00,93.2,75.1,29.92,South,180,7.1,8.7,56,0.00,,,0.06,WUHU216HW,2013-07-08 17:56:00,
2013-07-08 13:02:00,92.8,74.7,29.91,WSW,248,8.9,8.9,56,0.00,,,0.06,WUHU216HW,2013-07-08 18:02:00,
2013-07-08 13:07:00,91.2,73.2,29.91,SW,225,6.0,11.4,56,0.00,,,0.06,WUHU216HW,2013-07-08 18:07:00,
2013-07-08 13:12:00,91.9,73.9,29.91,South,180,5.8,12.5,56,0.00,,,0.06,WUHU216HW,2013-07-08 18:12:00,
2013-07-08 13:17:00,93.7,75.0,29.91,SSW,203,6.9,12.5,55,0.00,,,0.06,WUHU216HW,2013-07-08 18:17:00,
2013-07-08 13:22:00,94.6,74.3,29.91,SSW,203,7.3,15.6,52,0.00,,,0.06,WUHU216HW,2013-07-08 18:22:00,
2013-07-08 13:28:00,93.7,73.9,29.91,SSW,203,9.1,15.6,53,0.00,,,0.06,WUHU216HW,2013-07-08 18:28:00,
2013-07-08 13:34:00,91.4,72.8,29.91,South,180,2.0,9.1,55,0.00,,,0.06,WUHU216HW,2013-07-08 18:34:00,
2013-07-08 13:40:00,91.0,73.6,29.91,SSW,203,5.8,6.0,57,0.00,,,0.06,WUHU216HW,2013-07-08 18:40:00,
2013-07-08 13:45:00,90.6,73.2,29.91,SW,225,3.8,5.8,57,0.00,,,0.06,WUHU216HW,2013-07-08 18:45:00,
2013-07-08 13:51:00,90.6,72.7,29.91,SW,225,4.0,9.3,56,0.00,,,0.06,WUHU216HW,2013-07-08 18:51:00,
2013-07-08 13:56:00,90.6,72.7,29.91,WSW,248,11.8,11.8,56,0.00,,,0.06,WUHU216HW,2013-07-08 18:56:00,
2013-07-08 14:02:00,89.2,71.9,29.92,West,270,4.2,11.8,57,0.00,,,0.06,WUHU216HW,2013-07-08 19:02:00,
2013-07-08 14:07:00,87.9,71.9,29.91,SW,225,8.0,11.8,59,0.00,,,0.06,WUHU216HW,2013-07-08 19:07:00,
2013-07-08 14:12:00,88.7,74.2,29.91,WSW,248,0.0,9.6,61,0.00,,,0.06,WUHU216HW,2013-07-08 19:12:00,
2013-07-08 14:17:00,91.0,74.6,29.92,WSW,248,7.6,9.6,59,0.00,,,0.06,WUHU216HW,2013-07-08 19:17:00,
2013-07-08 14:23:00,91.7,74.8,29.92,SSW,203,7.1,7.6,58,0.00,,,0.06,WUHU216HW,2013-07-08 19:23:00,
2013-07-08 14:29:00,92.4,74.4,29.91,SE,135,6.7,10.2,56,0.00,,,0.06,WUHU216HW,2013-07-08 19:29:00,
2013-07-08 14:34:00,90.5,73.6,29.91,SW,225,7.3,10.2,58,0.00,,,0.06,WUHU216HW,2013-07-08 19:34:00,
2013-07-08 14:39:00,89.7,73.5,29.91,SSE,158,1.5,8.2,59,0.00,,,0.06,WUHU216HW,2013-07-08 19:39:00,
2013-07-08 14:44:00,89.4,73.7,29.91,SW,225,8.0,8.0,60,0.00,,,0.06,WUHU216HW,2013-07-08 19:44:00,
2013-07-08 14:50:00,89.2,74.0,29.91,South,180,3.1,8.5,61,0.00,,,0.06,WUHU216HW,2013-07-08 19:50:00,
2013-07-08 14:55:00,88.3,72.8,29.91,WNW,293,7.3,8.5,60,0.00,,,0.06,WUHU216HW,2013-07-08 19:55:00,
2013-07-08 15:00:00,88.1,73.0,29.92,South,180,4.4,7.3,61,0.00,,,0.06,WUHU216HW,2013-07-08 20:00:00,
2013-07-08 15:06:00,87.4,72.8,29.92,SSW,203,11.4,11.4,62,0.00,,,0.06,WUHU216HW,2013-07-08 20:06:00,
2013-07-08 15:11:00,86.7,72.1,29.92,SSW,203,6.4,11.4,62,0.00,,,0.06,WUHU216HW,2013-07-08 20:11:00,
2013-07-08 15:16:00,86.0,71.9,29.92,SSW,203,2.4,13.6,63,0.00,,,0.06,WUHU216HW,2013-07-08 20:16:00,
2013-07-08 15:22:00,85.2,71.7,29.91,SSW,203,3.1,13.6,64,0.00,,,0.06,WUHU216HW,2013-07-08 20:22:00,
2013-07-08 15:27:00,84.2,71.6,29.91,SSW,203,9.1,9.1,66,0.00,,,0.06,WUHU216HW,2013-07-08 20:27:00,
2013-07-08 15:32:00,83.3,71.1,29.91,South,180,1.3,10.2,67,0.00,,,0.06,WUHU216HW,2013-07-08 20:32:00,
2013-07-08 15:38:00,82.7,71.0,29.92,SW,225,5.8,10.2,68,0.00,,,0.06,WUHU216HW,2013-07-08 20:38:00,
2013-07-08 15:43:00,82.2,70.9,29.91,South,180,4.2,5.8,69,0.00,,,0.06,WUHU216HW,2013-07-08 20:43:00,
2013-07-08 15:48:00,82.0,71.2,29.91,SSW,203,2.9,10.7,70,0.00,,,0.06,WUHU216HW,2013-07-08 20:48:00,
2013-07-08 15:53:00,81.3,71.4,29.91,South,180,4.4,10.7,72,0.00,,,0.06,WUHU216HW,2013-07-08 20:53:00,
2013-07-08 15:59:00,81.1,71.6,29.91,SSW,203,7.1,7.1,73,0.00,,,0.06,WUHU216HW,2013-07-08 20:59:00,
2013-07-08 16:04:00,81.1,71.6,29.91,SSW,203,4.2,7.1,73,0.00,,,0.06,WUHU216HW,2013-07-08 21:04:00,
2013-07-08 16:09:00,81.3,71.8,29.92,South,180,2.2,5.1,73,0.00,,,0.06,WUHU216HW,2013-07-08 21:09:00,
2013-07-08 16:15:00,81.5,71.9,29.92,South,180,6.7,6.7,73,0.00,,,0.06,WUHU216HW,2013-07-08 21:15:00,
2013-07-08 16:21:00,81.6,72.1,29.92,SSW,203,2.2,6.7,73,0.00,,,0.06,WUHU216HW,2013-07-08 21:21:00,
2013-07-08 16:26:00,82.2,72.6,29.92,South,180,2.4,5.8,73,0.00,,,0.06,WUHU216HW,2013-07-08 21:26:00,
2013-07-08 16:31:00,83.1,73.1,29.92,SSW,203,4.4,5.8,72,0.00,,,0.06,WUHU216HW,2013-07-08 21:31:00,
2013-07-08 16:37:00,84.3,73.9,29.92,South,180,6.2,6.2,71,0.00,,,0.06,WUHU216HW,2013-07-08 21:37:00,
2013-07-08 16:42:00,84.9,73.6,29.92,West,270,3.8,6.2,69,0.00,,,0.06,WUHU216HW,2013-07-08 21:42:00,
2013-07-08 16:47:00,86.1,74.4,29.91,SSE,158,5.3,9.1,68,0.00,,,0.06,WUHU216HW,2013-07-08 21:47:00,
2013-07-08 16:52:00,86.7,74.9,29.92,SW,225,4.6,9.1,68,0.00,,,0.06,WUHU216HW,2013-07-08 21:52:00,
2013-07-08 16:57:00,88.8,75.1,29.92,SSW,203,5.1,7.6,64,0.00,,,0.06,WUHU216HW,2013-07-08 21:57:00,
2013-07-08 17:03:00,89.9,76.1,29.91,South,180,2.9,7.6,64,0.00,,,0.06,WUHU216HW,2013-07-08 22:03:00,
2013-07-08 17:08:00,90.6,76.3,29.91,SSW,203,4.4,5.1,63,0.00,,,0.06,WUHU216HW,2013-07-08 22:08:00,
2013-07-08 17:13:00,90.1,75.3,29.91,SSW,203,7.3,7.3,62,0.00,,,0.06,WUHU216HW,2013-07-08 22:13:00,
2013-07-08 17:18:00,89.7,75.5,29.91,SSW,203,4.6,7.3,63,0.00,,,0.06,WUHU216HW,2013-07-08 22:18:00,
2013-07-08 17:24:00,89.2,75.0,29.91,South,180,3.8,5.1,63,0.00,,,0.06,WUHU216HW,2013-07-08 22:24:00,
2013-07-08 17:29:00,88.3,74.6,29.91,South,180,7.3,7.3,64,0.00,,,0.06,WUHU216HW,2013-07-08 22:29:00,
2013-07-08 17:35:00,87.0,73.8,29.91,SW,225,4.4,7.3,65,0.00,,,0.06,WUHU216HW,2013-07-08 22:35:00,
2013-07-08 17:40:00,85.8,73.6,29.91,SW,225,2.6,6.9,67,0.00,,,0.06,WUHU216HW,2013-07-08 22:40:00,
2013-07-08 17:46:00,85.2,73.0,29.91,South,180,9.1,9.1,67,0.00,,,0.06,WUHU216HW,2013-07-08 22:46:00,
2013-07-08 17:51:00,84.7,73.4,29.91,South,180,4.9,9.1,69,0.00,,,0.06,WUHU216HW,2013-07-08 22:51:00,
2013-07-08 17:56:00,84.5,73.7,29.91,South,180,3.5,4.9,70,0.00,,,0.06,WUHU216HW,2013-07-08 22:56:00,
2013-07-08 18:02:00,84.5,73.7,29.91,South,180,2.9,4.9,70,0.00,,,0.06,WUHU216HW,2013-07-08 23:02:00,
2013-07-08 18:07:00,84.3,73.9,29.91,SSE,158,2.6,6.2,71,0.00,,,0.06,WUHU216HW,2013-07-08 23:07:00,
2013-07-08 18:12:00,84.0,73.6,29.91,SW,225,5.1,6.2,71,0.00,,,0.06,WUHU216HW,2013-07-08 23:12:00,
2013-07-08 18:18:00,83.8,73.8,29.90,South,180,2.4,10.2,72,0.00,,,0.06,WUHU216HW,2013-07-08 23:18:00,
2013-07-08 18:23:00,83.4,73.4,29.91,SW,225,5.1,5.1,72,0.00,,,0.06,WUHU216HW,2013-07-08 23:23:00,
2013-07-08 18:29:00,83.4,73.8,29.91,SSW,203,2.6,5.1,73,0.00,,,0.06,WUHU216HW,2013-07-08 23:29:00,
2013-07-08 18:34:00,83.1,73.5,29.91,South,180,0.8,4.9,73,0.00,,,0.06,WUHU216HW,2013-07-08 23:34:00,
2013-07-08 18:39:00,83.1,73.5,29.91,SSE,158,0.0,4.9,73,0.00,,,0.06,WUHU216HW,2013-07-08 23:39:00,
2013-07-08 18:45:00,83.1,73.9,29.91,South,180,0.6,5.3,74,0.00,,,0.06,WUHU216HW,2013-07-08 23:45:00,
2013-07-08 18:50:00,82.9,73.7,29.90,South,180,1.5,5.3,74,0.00,,,0.06,WUHU216HW,2013-07-08 23:50:00,
2013-07-08 18:55:00,82.7,74.0,29.90,South,180,0.0,2.6,75,0.00,,,0.06,WUHU216HW,2013-07-08 23:55:00,
2013-07-08 19:00:00,82.7,74.0,29.90,South,180,2.4,3.1,75,0.00,,,0.06,WUHU216HW,2013-07-09 00:00:00,
2013-07-08 19:06:00,82.5,73.8,29.91,South,180,0.0,3.1,75,0.00,,,0.06,WUHU216HW,2013-07-09 00:06:00,
2013-07-08 19:11:00,82.5,74.2,29.91,SSW,203,3.1,4.0,76,0.00,,,0.06,WUHU216HW,2013-07-09 00:11:00,
2013-07-08 19:16:00,82.4,74.4,29.91,SSW,203,3.1,4.0,77,0.00,,,0.06,WUHU216HW,2013-07-09 00:16:00,
2013-07-08 19:21:00,81.8,74.3,29.91,South,180,3.1,4.0,78,0.00,,,0.06,WUHU216HW,2013-07-09 00:21:00,
2013-07-08 19:27:00,81.5,74.4,29.91,SSW,203,2.4,4.0,79,0.00,,,0.06,WUHU216HW,2013-07-09 00:27:00,
2013-07-08 19:32:00,81.5,74.4,29.91,SW,225,2.6,2.9,79,0.00,,,0.06,WUHU216HW,2013-07-09 00:32:00,
2013-07-08 19:38:00,81.6,74.6,29.91,SSE,158,2.4,2.9,79,0.00,,,0.06,WUHU216HW,2013-07-09 00:38:00,
2013-07-08 19:43:00,81.6,74.6,29.91,South,180,1.5,2.4,79,0.00,,,0.06,WUHU216HW,2013-07-09 00:43:00,
2013-07-08 19:48:00,81.5,74.4,29.91,SW,225,9.6,9.6,79,0.00,,,0.06,WUHU216HW,2013-07-09 00:48:00,
2013-07-08 19:54:00,81.3,74.6,29.91,South,180,2.0,9.6,80,0.00,,,0.06,WUHU216HW,2013-07-09 00:54:00,
2013-07-08 19:59:00,81.1,74.4,29.90,SSW,203,2.2,4.6,80,0.00,,,0.06,WUHU216HW,2013-07-09 00:59:00,
2013-07-08 20:05:00,81.1,74.8,29.90,SSW,203,1.7,3.1,81,0.00,,,0.06,WUHU216HW,2013-07-09 01:05:00,
2013-07-08 20:10:00,80.9,74.6,29.90,SSW,203,2.6,2.6,81,0.00,,,0.06,WUHU216HW,2013-07-09 01:10:00,
2013-07-08 20:15:00,80.9,74.6,29.90,SSW,203,0.0,2.6,81,0.00,,,0.06,WUHU216HW,2013-07-09 01:15:00,
2013-07-08 20:21:00,80.7,74.4,29.90,SSW,203,1.7,2.6,81,0.00,,,0.06,WUHU216HW,2013-07-09 01:21:00,
2013-07-08 20:26:00,80.7,74.4,29.90,SSW,203,2.0,2.9,81,0.00,,,0.06,WUHU216HW,2013-07-09 01:26:00,
2013-07-08 20:31:00,80.6,74.2,29.90,SSW,203,1.5,2.9,81,0.00,,,0.06,WUHU216HW,2013-07-09 01:31:00,
2013-07-08 20:36:00,80.4,74.1,29.90,SSW,203,2.0,3.1,81,0.00,,,0.06,WUHU216HW,2013-07-09 01:36:00,
2013-07-08 20:41:00,80.4,74.1,29.89,South,180,0.0,3.1,81,0.00,,,0.06,WUHU216HW,2013-07-09 01:41:00,
2013-07-08 20:47:00,80.4,74.1,29.89,SSW,203,4.2,5.8,81,0.00,,,0.06,WUHU216HW,2013-07-09 01:47:00,
2013-07-08 20:52:00,80.4,73.7,29.89,South,180,4.0,5.8,80,0.00,,,0.06,WUHU216HW,2013-07-09 01:52:00,
2013-07-08 20:57:00,80.6,73.9,29.89,South,180,3.1,4.4,80,0.00,,,0.06,WUHU216HW,2013-07-09 01:57:00,
2013-07-08 21:03:00,80.4,73.7,29.89,South,180,1.5,4.9,80,0.00,,,0.06,WUHU216HW,2013-07-09 02:03:00,
2013-07-08 21:08:00,80.4,73.3,29.89,SSW,203,2.0,4.9,79,0.00,,,0.06,WUHU216HW,2013-07-09 02:08:00,
2013-07-08 21:13:00,80.4,73.3,29.89,South,180,3.1,3.3,79,0.00,,,0.06,WUHU216HW,2013-07-09 02:13:00,
2013-07-08 21:18:00,80.4,73.3,29.89,South,180,5.1,5.1,79,0.00,,,0.06,WUHU216HW,2013-07-09 02:18:00,
2013-07-08 21:24:00,80.4,73.3,29.89,South,180,2.0,5.1,79,0.00,,,0.06,WUHU216HW,2013-07-09 02:24:00,
2013-07-08 21:29:00,80.2,73.1,29.90,South,180,2.6,2.6,79,0.00,,,0.06,WUHU216HW,2013-07-09 02:29:00,
2013-07-08 21:34:00,79.8,72.8,29.90,South,180,0.0,2.6,79,0.00,,,0.06,WUHU216HW,2013-07-09 02:34:00,
2013-07-08 21:41:00,79.7,72.6,29.90,SSW,203,2.4,2.4,79,0.00,,,0.06,WUHU216HW,2013-07-09 02:41:00,
2013-07-08 21:46:00,79.7,72.6,29.91,SSW,203,2.2,2.4,79,0.00,,,0.06,WUHU216HW,2013-07-09 02:46:00,
2013-07-08 21:52:00,79.5,72.4,29.91,SSW,203,1.5,2.2,79,0.00,,,0.06,WUHU216HW,2013-07-09 02:52:00,
2013-07-08 21:57:00,79.3,72.6,29.91,South,180,1.3,2.2,80,0.00,,,0.06,WUHU216HW,2013-07-09 02:57:00,
2013-07-08 22:03:00,79.1,72.5,29.91,South,180,1.7,1.7,80,0.00,,,0.06,WUHU216HW,2013-07-09 03:03:00,
2013-07-08 22:08:00,78.8,72.5,29.91,South,180,3.8,3.8,81,0.00,,,0.06,WUHU216HW,2013-07-09 03:08:00,
2013-07-08 22:13:00,78.9,72.6,29.91,South,180,1.7,3.8,81,0.00,,,0.06,WUHU216HW,2013-07-09 03:13:00,
2013-07-08 22:18:00,79.1,72.8,29.91,South,180,2.9,3.8,81,0.00,,,0.06,WUHU216HW,2013-07-09 03:18:00,
2013-07-08 22:24:00,79.3,73.0,29.91,South,180,2.6,2.9,81,0.00,,,0.06,WUHU216HW,2013-07-09 03:24:00,
2013-07-08 22:29:00,79.3,73.0,29.91,South,180,2.6,2.9,81,0.00,,,0.06,WUHU216HW,2013-07-09 03:29:00,
2013-07-08 22:34:00,79.3,73.0,29.91,South,180,2.4,4.4,81,0.00,,,0.06,WUHU216HW,2013-07-09 03:34:00,
2013-07-08 22:39:00,79.1,72.8,29.91,SSE,158,1.7,4.4,81,0.00,,,0.06,WUHU216HW,2013-07-09 03:39:00,
2013-07-08 22:44:00,79.1,72.8,29.91,South,180,1.7,3.5,81,0.00,,,0.06,WUHU216HW,2013-07-09 03:44:00,
2013-07-08 22:50:00,78.9,72.6,29.91,South,180,2.4,3.5,81,0.00,,,0.06,WUHU216HW,2013-07-09 03:50:00,
2013-07-08 22:55:00,78.9,72.6,29.91,South,180,3.1,3.5,81,0.00,,,0.06,WUHU216HW,2013-07-09 03:55:00,
2013-07-08 23:00:00,78.9,72.6,29.91,South,180,0.8,3.5,81,0.00,,,0.06,WUHU216HW,2013-07-09 04:00:00,
2013-07-08 23:01:00,78.9,72.6,29.91,South,180,2.0,3.5,81,0.00,,,0.06,WUHU216HW,2013-07-09 04:01:00,
2013-07-08 23:02:00,78.9,72.6,29.91,South,180,2.0,3.5,81,0.00,,,0.06,WUHU216HW,2013-07-09 04:02:00,
2013-07-08 23:07:00,78.9,72.6,29.91,SSE,158,2.2,2.6,81,0.00,,,0.06,WUHU216HW,2013-07-09 04:07:00,
2013-07-08 23:12:00,78.9,72.6,29.91,South,180,1.3,2.2,81,0.00,,,0.06,WUHU216HW,2013-07-09 04:12:00,
2013-07-08 23:17:00,78.9,72.6,29.91,SSE,158,0.0,1.3,81,0.00,,,0.06,WUHU216HW,2013-07-09 04:17:00,
2013-07-08 23:22:00,78.6,72.3,29.91,SSE,158,0.0,1.3,81,0.00,,,0.06,WUHU216HW,2013-07-09 04:22:00,
2013-07-08 23:27:00,78.6,72.3,29.91,SSE,158,0.0,0.0,81,0.00,,,0.06,WUHU216HW,2013-07-09 04:27:00,
2013-07-08 23:32:00,78.6,72.3,29.91,SSE,158,0.0,0.0,81,0.00,,,0.06,WUHU216HW,2013-07-09 04:32:00,
2013-07-08 23:37:00,78.4,72.1,29.91,SSE,158,0.0,0.0,81,0.00,,,0.06,WUHU216HW,2013-07-09 04:37:00,
2013-07-08 23:42:00,78.2,72.3,29.91,SSE,158,0.0,0.0,82,0.00,,,0.06,WUHU216HW,2013-07-09 04:42:00,
2013-07-08 23:47:00,78.0,72.1,29.91,SSE,158,0.0,0.0,82,0.00,,,0.06,WUHU216HW,2013-07-09 04:47:00,
2013-07-08 23:52:00,78.0,72.1,29.91,SSE,158,0.0,0.0,82,0.00,,,0.06,WUHU216HW,2013-07-09 04:52:00,
2013-07-08 23:57:00,77.9,71.9,29.91,SSE,158,0.0,0.0,82,0.00,,,0.06,WUHU216HW,2013-07-09 04:57:00,